Change the Weather History Date:

Wednesday, March 27, 2013

  Actual Average (KCEW) Record (KCEW)
Temperature  
Mean Temperature 45 °F -  
Max Temperature 60 °F 72 °F 87 °F (2011)
Min Temperature 30 °F 46 °F 28 °F (2006)
Degree Days  
Heating Degree Days 20    
Moisture  
Dew Point 27 °F    
Average Humidity 56    
Maximum Humidity 85    
Minimum Humidity 24    
Precipitation  
Precipitation 0.00 in - - ()
Sea Level Pressure  
Sea Level Pressure 30.36 in    
Wind  
Wind Speed 2 mph (North)    
Max Wind Speed 8 mph    
Max Gust Speed 17 mph    
Visibility 10 miles    
Events      
Averages and records for this station are not official NWS values.
T = Trace of Precipitation, MM = Missing Value Source: NWS Daily Summary

Daily Weather History Graph

Daily Weather History Graph

Search for Another Location

Airport or City:

Trip Planner

Search our weather history database for the weather conditions in past years. The results will help you decide how hot, cold, wet, or windy it might be!

Date:

Astronomy

Mar. 27, 2013 Rise Set
Actual Time 6:39 AM CDT 7:01 PM CDT
Civil Twilight 6:15 AM CDT 7:25 PM CDT
Nautical Twilight 5:47 AM CDT 7:54 PM CDT
Astronomical Twilight 5:18 AM CDT 8:22 PM CDT
Moon 7:38 PM CDT (3/27) 6:33 AM CDT (3/27)
Length of Visible Light 13h 09m
Length of Day
12h 21m
Full, 100% of the Moon is Illuminated
Mar 27
Full
Apr 2
Last Quarter
Apr 10
New
Apr 18
First Quarter
Apr 25
Full

Hourly Weather History & Observations

Time (CDT) Temp. Windchill Dew Point Humidity Pressure Visibility Wind Dir Wind Speed Gust Speed Precip Events Conditions
12:58 AM 35.1 °F - 28.9 °F 78% 30.37 in 10.0 mi Calm Calm - N/A   Clear
1:58 AM 30.9 °F - 27.0 °F 85% 30.37 in 10.0 mi Calm Calm - N/A   Clear
2:58 AM 34.0 °F - 27.0 °F 75% 30.36 in 10.0 mi Calm Calm - N/A   Clear
3:58 AM 33.1 °F - 26.1 °F 75% 30.35 in 10.0 mi Calm Calm - N/A   Clear
4:58 AM 32.0 °F - 26.1 °F 79% 30.36 in 10.0 mi Calm Calm - N/A   Clear
5:58 AM 32.0 °F 27.5 °F 26.1 °F 79% 30.38 in 10.0 mi NNW 4.6 mph - N/A   Clear
6:58 AM 30.9 °F 27.5 °F 26.1 °F 82% 30.41 in 10.0 mi NNW 3.5 mph - N/A   Clear
7:58 AM 36.0 °F 31.1 °F 26.1 °F 67% 30.43 in 10.0 mi North 5.8 mph - N/A   Clear
8:58 AM 43.0 °F 38.2 °F 28.0 °F 56% 30.43 in 10.0 mi NNE 8.1 mph - N/A   Clear
9:58 AM 46.9 °F - 23.0 °F 39% 30.43 in 10.0 mi Variable 6.9 mph 17.3 mph N/A   Clear
10:58 AM 48.9 °F - 24.1 °F 38% 30.42 in 10.0 mi NNE 8.1 mph - N/A   Clear
11:58 AM 52.0 °F - 23.0 °F 32% 30.42 in 10.0 mi Variable 4.6 mph - N/A   Clear
12:58 PM 54.0 °F - 24.1 °F 31% 30.39 in 10.0 mi Variable 5.8 mph - N/A   Clear
1:58 PM 57.9 °F - 25.0 °F 28% 30.35 in 10.0 mi NW 5.8 mph - N/A   Clear
2:58 PM 59.0 °F - 25.0 °F 27% 30.32 in 10.0 mi Variable 3.5 mph - N/A   Clear
3:58 PM 60.1 °F - 23.0 °F 24% 30.30 in 10.0 mi NW 6.9 mph - N/A   Clear
4:58 PM 60.1 °F - 23.0 °F 24% 30.29 in 10.0 mi NNE 6.9 mph - N/A   Clear
5:58 PM 60.1 °F - 23.0 °F 24% 30.29 in 10.0 mi Variable 3.5 mph - N/A   Clear
6:58 PM 55.0 °F - 26.1 °F 33% 30.30 in 10.0 mi Calm Calm - N/A   Clear
7:58 PM 46.0 °F - 36.0 °F 68% 30.32 in 10.0 mi Calm Calm - N/A   Clear
8:58 PM 44.1 °F - 35.1 °F 71% 30.32 in 10.0 mi Calm Calm - N/A   Clear
9:58 PM 43.0 °F - 32.0 °F 65% 30.33 in 10.0 mi Calm Calm - N/A   Clear
10:58 PM 41.0 °F - 34.0 °F 76% 30.32 in 10.0 mi Calm Calm - N/A   Clear
11:58 PM 37.9 °F - 32.0 °F 79% 30.32 in 10.0 mi Calm Calm - N/A   Clear